Cape May, NJ

3:55 PM EST on February 20, 2017 (GMT -0500)
Cape May County

Weather History for KWWD - November, 2011

Change the Weather History Date:

Friday, November 11, 2011

  Actual Average Record
Temperature  
Mean Temperature 45 °F -  
Max Temperature 48 °F 53 °F 66 °F (2002)
Min Temperature 42 °F 39 °F 33 °F (2003)
Degree Days  
Heating Degree Days 20    
Moisture  
Dew Point 28 °F    
Average Humidity 50    
Maximum Humidity 62    
Minimum Humidity 40    
Precipitation  
Precipitation 0.00 in - - ()
Sea Level Pressure  
Sea Level Pressure 29.86 in    
Wind  
Wind Speed 15 mph (WNW)    
Max Wind Speed 20 mph    
Max Gust Speed 32 mph    
Visibility 10 miles    
Events      
Averages and records for this station are not official NWS values.
T = Trace of Precipitation, MM = Missing Value Source: NWS Daily Summary

Daily Weather History Graph

Daily Weather History Graph

Search for Another Location

Airport or City:

Trip Planner

Search our weather history database for the weather conditions in past years. The results will help you decide how hot, cold, wet, or windy it might be!

Date:

Astronomy

Nov. 11, 2011 Rise Set
Actual Time 6:37 AM EST 4:49 PM EST
Civil Twilight 6:09 AM EST 5:17 PM EST
Nautical Twilight 5:37 AM EST 5:49 PM EST
Astronomical Twilight 5:06 AM EST 6:20 PM EST
Moon 5:17 PM EST (11/11) 7:23 AM EST (11/11)
Length of Visible Light 11h 07m
Length of Day
10h 11m
Full, 99% of the Moon is Illuminated
Nov 11
Full
Nov 18
Last Quarter
Nov 25
New
Dec 2
First Quarter
Dec 10
Full

Hourly Weather History & Observations

Time (EST) Temp. Windchill Dew Point Humidity Pressure Visibility Wind Dir Wind Speed Gust Speed Precip Events Conditions
12:15 AM 48.2 °F - 35.6 °F 62% 29.71 in 10.0 mi NW 15.0 mph 23.0 mph N/A   Overcast
12:35 AM 48.2 °F - 33.8 °F 58% 29.71 in 10.0 mi NW 13.8 mph 26.5 mph N/A   Overcast
12:55 AM 48.2 °F - 33.8 °F 58% 29.71 in 10.0 mi NW 13.8 mph 25.3 mph N/A   Mostly Cloudy
1:15 AM 46.4 °F 40.7 °F 33.8 °F 62% 29.71 in 10.0 mi WNW 12.7 mph 25.3 mph N/A   Mostly Cloudy
1:35 AM 46.4 °F 40.7 °F 32.0 °F 57% 29.72 in 10.0 mi NW 12.7 mph 28.8 mph N/A   Partly Cloudy
1:55 AM 46.4 °F 39.8 °F 30.2 °F 53% 29.72 in 10.0 mi NW 16.1 mph 27.6 mph N/A   Partly Cloudy
2:15 AM 46.4 °F 40.7 °F 30.2 °F 53% 29.72 in 10.0 mi NW 12.7 mph 31.1 mph N/A   Clear
2:35 AM 46.4 °F 40.7 °F 30.2 °F 53% 29.73 in 10.0 mi WNW 12.7 mph 28.8 mph N/A   Clear
2:55 AM 46.4 °F 41.9 °F 32.0 °F 57% 29.73 in 10.0 mi NW 9.2 mph 24.2 mph N/A   Partly Cloudy
3:35 AM 46.4 °F 40.7 °F 32.0 °F 57% 29.73 in 10.0 mi WNW 12.7 mph 19.6 mph N/A   Mostly Cloudy
3:55 AM 46.4 °F 39.8 °F 32.0 °F 57% 29.74 in 10.0 mi WNW 16.1 mph 24.2 mph N/A   Partly Cloudy
4:15 AM 44.6 °F 38.8 °F 32.0 °F 61% 29.74 in 10.0 mi NW 11.5 mph 25.3 mph N/A   Clear
4:35 AM 44.6 °F 37.8 °F 32.0 °F 61% 29.75 in 10.0 mi WNW 15.0 mph 21.9 mph N/A   Clear
4:55 AM 44.6 °F 38.1 °F 32.0 °F 61% 29.76 in 10.0 mi WNW 13.8 mph 25.3 mph N/A   Clear
5:15 AM 44.6 °F 38.8 °F 30.2 °F 57% 29.76 in 10.0 mi WNW 11.5 mph 32.2 mph N/A   Clear
5:35 AM 44.6 °F 37.4 °F 30.2 °F 57% 29.77 in 10.0 mi WNW 16.1 mph 26.5 mph N/A   Clear
5:55 AM 44.6 °F 38.4 °F 28.4 °F 53% 29.78 in 10.0 mi WNW 12.7 mph 28.8 mph N/A   Clear
6:15 AM 44.6 °F 38.4 °F 30.2 °F 57% 29.78 in 10.0 mi WNW 12.7 mph 25.3 mph N/A   Clear
6:35 AM 44.6 °F 38.1 °F 26.6 °F 49% 29.79 in 10.0 mi WNW 13.8 mph 27.6 mph N/A   Clear
6:55 AM 42.8 °F 35.1 °F 26.6 °F 53% 29.80 in 10.0 mi WNW 16.1 mph 25.3 mph N/A   Clear
7:15 AM 42.8 °F 35.1 °F 26.6 °F 53% 29.81 in 10.0 mi WNW 16.1 mph 26.5 mph N/A   Partly Cloudy
7:35 AM 44.6 °F 37.4 °F 26.6 °F 49% 29.82 in 10.0 mi WNW 16.1 mph 25.3 mph N/A   Scattered Clouds
7:55 AM 42.8 °F 35.1 °F 26.6 °F 53% 29.83 in 10.0 mi WNW 16.1 mph 25.3 mph N/A   Mostly Cloudy
8:15 AM 42.8 °F 35.4 °F 28.4 °F 57% 29.83 in 10.0 mi WNW 15.0 mph 24.2 mph N/A   Overcast
8:35 AM 42.8 °F 34.3 °F 26.6 °F 53% 29.83 in 10.0 mi WNW 19.6 mph 27.6 mph N/A   Overcast
8:55 AM 44.6 °F 37.8 °F 26.6 °F 49% 29.84 in 10.0 mi WNW 15.0 mph 27.6 mph N/A   Mostly Cloudy
9:15 AM 42.8 °F 36.2 °F 24.8 °F 49% 29.84 in 10.0 mi WNW 12.7 mph 25.3 mph N/A   Mostly Cloudy
9:35 AM 44.6 °F 36.9 °F 26.6 °F 49% 29.85 in 10.0 mi WNW 18.4 mph 27.6 mph N/A   Mostly Cloudy
9:55 AM 44.6 °F 37.2 °F 26.6 °F 49% 29.85 in 10.0 mi West 17.3 mph 27.6 mph N/A   Mostly Cloudy
10:15 AM 44.6 °F 37.2 °F 26.6 °F 49% 29.86 in 10.0 mi West 17.3 mph 25.3 mph N/A   Scattered Clouds
10:35 AM 46.4 °F 40.1 °F 26.6 °F 46% 29.86 in 10.0 mi WNW 15.0 mph 27.6 mph N/A   Scattered Clouds
10:55 AM 46.4 °F 39.5 °F 26.6 °F 46% 29.86 in 10.0 mi WNW 17.3 mph 28.8 mph N/A   Scattered Clouds
11:15 AM 46.4 °F 39.0 °F 24.8 °F 43% 29.85 in 10.0 mi WNW 19.6 mph 27.6 mph N/A   Partly Cloudy
11:35 AM 46.4 °F 39.8 °F 26.6 °F 46% 29.85 in 10.0 mi WNW 16.1 mph 25.3 mph N/A   Scattered Clouds
11:55 AM 46.4 °F 39.8 °F 26.6 °F 46% 29.85 in 10.0 mi West 16.1 mph 26.5 mph N/A   Scattered Clouds
12:15 PM 46.4 °F 40.1 °F 26.6 °F 46% 29.85 in 10.0 mi WNW 15.0 mph 27.6 mph N/A   Mostly Cloudy
12:35 PM 46.4 °F 39.8 °F 26.6 °F 46% 29.85 in 10.0 mi WNW 16.1 mph 25.3 mph N/A   Mostly Cloudy
12:55 PM 46.4 °F 39.0 °F 24.8 °F 43% 29.86 in 10.0 mi West 19.6 mph 27.6 mph N/A   Mostly Cloudy
1:35 PM 48.2 °F - 26.6 °F 43% 29.87 in 10.0 mi WNW 19.6 mph 27.6 mph N/A   Overcast
1:55 PM 46.4 °F 40.1 °F 24.8 °F 43% 29.88 in 10.0 mi West 15.0 mph 26.5 mph N/A   Overcast
2:35 PM 46.4 °F 39.5 °F 24.8 °F 43% 29.89 in 10.0 mi West 17.3 mph 25.3 mph N/A   Mostly Cloudy
2:55 PM 46.4 °F 39.8 °F 24.8 °F 43% 29.90 in 10.0 mi WNW 16.1 mph 26.5 mph N/A   Mostly Cloudy
3:15 PM 48.2 °F - 24.8 °F 40% 29.91 in 10.0 mi West 18.4 mph 24.2 mph N/A   Mostly Cloudy
3:35 PM 48.2 °F - 26.6 °F 43% 29.92 in 10.0 mi West 17.3 mph 25.3 mph N/A   Overcast
3:55 PM 46.4 °F 39.5 °F 24.8 °F 43% 29.94 in 10.0 mi WNW 17.3 mph 23.0 mph N/A   Overcast
4:15 PM 46.4 °F 39.5 °F 26.6 °F 46% 29.94 in 10.0 mi West 17.3 mph 28.8 mph N/A   Mostly Cloudy
4:35 PM 46.4 °F 39.8 °F 24.8 °F 43% 29.95 in 10.0 mi WNW 16.1 mph 24.2 mph N/A   Mostly Cloudy
4:55 PM 46.4 °F 39.5 °F 24.8 °F 43% 29.96 in 10.0 mi West 17.3 mph 25.3 mph N/A   Scattered Clouds
5:35 PM 46.4 °F 40.4 °F 24.8 °F 43% 29.98 in 10.0 mi West 13.8 mph 26.5 mph N/A   Mostly Cloudy
5:55 PM 46.4 °F 39.5 °F 24.8 °F 43% 29.99 in 10.0 mi West 17.3 mph 28.8 mph N/A   Partly Cloudy
6:35 PM 46.4 °F 40.1 °F 24.8 °F 43% 30.02 in 10.0 mi West 15.0 mph 21.9 mph N/A   Clear
6:55 PM 46.4 °F 39.8 °F 24.8 °F 43% 30.03 in 10.0 mi West 16.1 mph 25.3 mph N/A   Clear
7:15 PM 46.4 °F 40.1 °F 24.8 °F 43% 30.04 in 10.0 mi West 15.0 mph 19.6 mph N/A   Clear
7:35 PM 46.4 °F 41.1 °F 24.8 °F 43% 30.04 in 10.0 mi West 11.5 mph 23.0 mph N/A   Clear
7:55 PM 46.4 °F 40.4 °F 24.8 °F 43% 30.05 in 10.0 mi West 13.8 mph 25.3 mph N/A   Clear
8:15 PM 46.4 °F 41.1 °F 26.6 °F 46% 30.05 in 10.0 mi West 11.5 mph 20.7 mph N/A   Clear
8:35 PM 46.4 °F 39.5 °F 26.6 °F 46% 30.07 in 10.0 mi West 17.3 mph 24.2 mph N/A   Clear
8:55 PM 46.4 °F 40.7 °F 26.6 °F 46% 30.08 in 10.0 mi West 12.7 mph 20.7 mph N/A   Clear
9:15 PM 46.4 °F 40.4 °F 26.6 °F 46% 30.09 in 10.0 mi West 13.8 mph - N/A   Clear
9:35 PM 44.6 °F 38.8 °F 26.6 °F 49% 30.10 in 10.0 mi West 11.5 mph 17.3 mph N/A   Clear
9:55 PM 44.6 °F 39.2 °F 26.6 °F 49% 30.10 in 10.0 mi West 10.4 mph 20.7 mph N/A   Clear
10:15 PM 44.6 °F 38.4 °F 26.6 °F 49% 30.11 in 10.0 mi WSW 12.7 mph - N/A   Clear
10:35 PM 44.6 °F 39.2 °F 26.6 °F 49% 30.12 in 10.0 mi WSW 10.4 mph 19.6 mph N/A   Clear
10:55 PM 44.6 °F 38.8 °F 26.6 °F 49% 30.12 in 10.0 mi West 11.5 mph 21.9 mph N/A   Clear
11:15 PM 44.6 °F 39.2 °F 26.6 °F 49% 30.12 in 10.0 mi West 10.4 mph 18.4 mph N/A   Clear
11:35 PM 44.6 °F 39.2 °F 26.6 °F 49% 30.12 in 10.0 mi West 10.4 mph 23.0 mph N/A   Clear
11:55 PM 44.6 °F 37.8 °F 26.6 °F 49% 30.12 in 10.0 mi West 15.0 mph 20.7 mph N/A   Clear